Погода в Тайшете

Погода в Тайшете : погода сейчас, прогноз погоды и архив. Всё, что Вы хотите узнать о погоде в Тайшете!

Хотите узнать прогноз погоды в Тайшете? Тогда Вам сюда: Погода в Тайшете

Поиск расширенной информации на нашем сайте:

Другие новости

Новости СМИ2

Главная страница сайта

Новости сайта

03.07.2017

Напоминаем, что на нашем специализированном сайте Метеоцентр.Азия вы можете получить высокодетализированные автоматические прогнозы погоды по пунктам России, СНГ и мира в авиационном формате (включающие направление и скорость ветра, видимость, явления погоды, количество и форму облачности, нижнюю и верхнюю границу облачности).

Рекомендуем: Дренажная помпа кондиционера.

Погода в Тайшете - сегодня

Время (UTC), дата Ветер
(°,м/с) 
Видим.   Явления Облачность Т
(°С)
Тd
(°С)
f(%) Тe
(°С)
Pmin
(гПа)
dP
(гПа)
Po
(мм)
O2
(г/м3)
Тmin Tmax R s Состояние
почвы
12 23.07.17 080 (В) 20000 м    4/3 1000 м верхняя 
[Cu med, cong|Ci fib]
+23.4 +15.2 60 +33  1011.4  -0.4  732  269    +24.7       
15 23.07.17 080 (В) 20000 м    4/0 верхняя 
[Ci]
+17.1 +14.6 85 +28  1012.2  732  275           
18 23.07.17 120 (ЮВ) н/о    3/0 верхняя 
[Ci fib]
+14.2 +13 92 +21  1012.3  -0.3  732  278           
21 23.07.17 080 (В) 20000 м    3/0 верхняя 
[Ci fib]
+12.3 +11.8 97 +18  1012  -0.6  732  280           
00 24.07.17 060 (СВ) 20000 м    8/4 1000 м средняя, верхняя 
[Sc|Ac trans|Ci]
+16 +13 82 +23  1011.8  0.3  732  276  +11.8        сухая 
03 24.07.17 060 (СВ) 20000 м    6/3 1000 м средняя, верхняя 
[Sc|Ac lent|Ci fib]
+21.6 +14.1 62 +29  1010.3  -0.7  731  270           
06 24.07.17 090 (В) 20000 м    8/4 1000 м верхняя 
[Sc|Ci fib]
+24.7 +14 51 +32  1008.7  -1.2  731  267           
09 24.07.17 060 (СВ) 20000 м    9/5 600 м кучево-дожд., средняя, верхняя 
[Cb cap|Ac lent|Cs]
+23.9 +14.8 57 +33  1008.1  -0.6  730  267           
12 24.07.17 040 (СВ) 20000 м    9/3 1000 м средняя, верхняя 
[Sc|Ac lent|Ci fib]
+22.9 +17.2 70 +36  1008.4  0.2  730  268    +25.6       
15 24.07.17 тихо ()   20000 м    6/1 1000 м средняя, верхняя 
[Sc|Ac lent|Ci fib]
+16.9 +16 94 +28  1009.6  0.4  731  274           
18 24.07.17 250 (З) н/о    6/3 1000 м средняя, верхняя 
[Sc|Ac trans|Ci fib]
+13 +13 100 +20  1009.8  -0.3  730  278           
21 24.07.17 тихо ()   20000 м    4/0 средняя, верхняя 
[Ac lent|Ci fib]
+10.7 +10.7 100 +13  1010.1  -0.1  730  281           
00 25.07.17 050 (СВ) 20000 м    4/0 средняя, верхняя 
[Ac lent|Ci fib]
+15.3 +14.5 95 +26  1009.8  0.3  731  276  +9.8        сухая 
03 25.07.17 020 (С) 39  0200 м    1/0 1000 м верхняя 
[Ci fib]
+16.6   1008.3  -0.4  730             
06 25.07.17 090 (В) 20000 м    4/0 средняя, верхняя 
[Ac trans|Ci fib]
+26.3 +14.4 48 +35  1006.8  -1.2  729  265           
09 25.07.17 100 (В) 20000 м    6/4 600 м кучево-дожд., средняя, верхняя 
[Cb cap|Ac trans|Ci fib]
+27.2 +13.8 44 +35  1005.5  -1.1  728  264           
12 25.07.17 120 (ЮВ) 20000 м    6/0 верхняя 
[Ci fib]
+26 +13.2 45 +32  1005.2  -0.5  728  265    +27.7       
15 25.07.17 140 (ЮВ) 20000 м    3/0 верхняя 
[Ci fib]
+18.7 +14.5 77 +29  1005.9  -0.2  728  272           
18 25.07.17 160 (Ю) 20000 м    3/0 
[]
+17.5 +14.2 81 +26  1005.2  -0.8  727  272           
21 25.07.17 130 (ЮВ) 20000 м    3/0 верхняя 
[Ci fib]
+14.6 +13.8 95 +22  1004.8  -0.8  727  275           
00 26.07.17 130 (ЮВ) 20000 м    8/0 средняя, верхняя 
[Ac trans|Ci fib]
+16.9 +14.6 86 +27  1004.6  0.1  727  273  +14.2        сухая 
03 26.07.17 110 (В) 20000 м    4/0 верхняя 
[Ci fib]
+23.6 +16.7 65 +36  1003.2  -0.5  727  266           
06 26.07.17 080 (В) 20000 м    8/3 1000 м средняя, верхняя 
[Cu med, cong|Ac lent|Ci fib]
+27.7 +17.8 55 +43  1002  -0.6  726  262           
09 26.07.17 260 (З) 20000 м    8/6 600 м кучево-дожд., средняя, верхняя 
[Cb cap|Ac cast|Ci fib]
+29 +15.9 45 +40  1001  -1  725  261           
12 26.07.17 310 (СЗ) 20000 м    10/8 600 м кучево-дожд., средняя, верхняя 
[Cb cap|Ac trans|Cc]
+25.2 +17.3 62 +39  1002.4  726  264    +29.7       
Время (UTC), дата Ветер
(°,м/с) 
Видим.   Явления Облачность Т
(°С)
Тd
(°С)
f(%) Тe
(°С)
Pmin
(гПа)
dP
(гПа)
Po
(мм)
O2
(г/м3)
Тmin Tmax R s Состояние
почвы

Для получения пояснительной информации подведите курсор к названию столбца.

ПОГОДА в Тайшете - архив

Всё, что Вы хотите узнать о погоде в Тайшете - удобно и подробно!

Выберите нужную дату (начиная с 1 января 2015* года) и нажмите кнопку "Найти".
Будут отображены архивные сводки погоды по пункту Тайшет, начиная с указанной даты.


Отображать данные в формате CSV (для использования в таблицах Excel)


Внимание! Наш архив погоды предназначен исключительно для личного некоммерческого использования в познавательных целях. Если Вам необходимы официальные справки о состоянии погоды (для производственных, юридических, коммерческих и т.п. целей), обращайтесь в органы Росгидромета.

*Примечание: данная дата относится к архиву по метеостанциям СССР (Россия, СНГ, Балтия).
Архив по метеостанциям Зарубежной Европы и Азии (кроме Китая) хранится 10 дней, по другим регионам земного шара (Китай, Африка, Америка, Австралия, Океания) - 1 день.

Тайшет - район местоположения метеостанции


Название, широта, долгота, высота метеостанции:
Тайшет 55.9°ш. 98°д. 307 м над ур. моря [Российская Федерация]

Дополнительная информация

В oтличие oт бoльшинства пoгoдных сайтoв мы публикуем пoдрoбную метеoинфoрмацию в детальнoм прoфессиoнальнoм фoрмате.

Характеристики температуры и влажнoсти вoздуха измеряются на высoте 2 м в тени вдали oт зданий и деревьев.
Скoрoсть ветра измеряется на высoте 10 м (на урoвне рoста челoвека скoрoсть ветра ниже в 1.5-2 раза). Если метеoстанция нахoдится в гoрoде или в лесу, тo скoрoсть ветра занижена на 2-4 м/с пo сравнению с oткрытым местoм. Скoрoсть ветра над акватoриями крупных рек и oзёр, а также на вершинах хoлмoв на 2-5 м/с выше, чем в oбычных услoвиях.
Атмoсфернoе давление в разных тoчках местнoсти мoжет значительнo oтличаться oт давления на метеoстанции, в зависимoсти oт услoвий рельефа (при пoдъёме на 10 м давление пoнижается примернo на 1 мм рт.ст.).